1514458800.61,52066,6.25,71406.8,-5.45,-7.15,-7.05,0,*52
1514458801.86,52067,6.25,71406.8,-5.45,-7.15,-7.05,0,*53
1514458803.11,52068,6.25,71378.8,-5.49,-7.27,-7.23,0,*55
1514458804.36,52069,6.25,71370.5,-5.45,-7.31,-7.23,0,*5F
1514458805.61,52070,6.25,71390.0,-5.45,-7.19,-7.05,0,*59
1514458806.84,52071,6.25,71392.0,-5.45,-7.19,-7.19,0,*55
1514458808.08,52072,6.25,71390.8,-5.45,-7.15,-7.05,0,*57
1514458809.31,52073,6.25,71400.5,-5.49,-7.19,-7.19,0,*5B
1514458810.56,52074,6.25,71396.3,-5.45,-7.31,-7.23,0,*53
1514458811.79,52075,6.25,71376.8,-5.49,-7.23,-7.23,0,*5D
1514458813.03,52076,6.25,71386.0,-5.45,-7.15,-7.05,0,*53
1514458814.26,52077,6.25,71386.5,-5.45,-7.15,-7.15,0,*53
1514458815.49,52078,6.25,71386.8,-5.49,-7.19,-7.11,0,*58
1514458816.72,52079,6.25,71380.8,-5.45,-7.23,-7.19,0,*54
1514458817.95,52080,6.25,71394.0,-5.49,-7.23,-7.23,0,*57
1514458819.18,52081,6.25,71386.8,-5.45,-7.23,-7.23,0,*5A
1514458820.4,52082,6.25,71376.3,-5.49,-7.23,-7.23,0,*55
1514458821.63,52083,6.25,71384.5,-5.49,-7.11,-7.11,0,*54
1514458822.88,52084,6.25,71388.8,-5.45,-7.15,-7.05,0,*5E
1514458824.11,52085,6.25,71398.0,-5.49,-7.23,-7.11,0,*53
1514458825.31,52086,6.25,71402.0,-5.51,-7.11,-7.11,0,*58
1514458826.54,52087,6.25,71402.0,-5.49,-7.19,-7.19,0,*50
1514458827.77,52088,6.25,71398.5,-5.51,-7.05,-7.11,0,*53
1514458829.0,52089,6.25,71398.3,-5.49,-7.11,-7.11,0,*5E
1514458830.21,52090,6.25,71402.0,-5.51,-7.11,-7.11,0,*5F
1514458831.48,52091,6.25,71402.0,-5.53,-7.27,-7.27,0,*5C
1514458832.68,52092,6.25,71394.0,-5.51,-7.23,-7.19,0,*54
1514458833.89,52093,6.25,71392.3,-5.51,-7.19,-7.11,0,*54
1514458835.12,52094,6.25,71388.0,-5.49,-7.19,-7.11,0,*5A
1514458836.35,52095,6.25,71394.0,-5.49,-7.19,-7.19,0,*53
1514458837.59,52096,6.25,71376.8,-5.51,-7.39,-7.27,0,*56
1514458838.83,52097,6.25,71374.8,-5.51,-7.39,-7.39,0,*58
1514458840.08,52098,6.25,71382.8,-5.51,-7.35,-7.35,0,*57
1514458841.28,52099,6.25,71398.8,-5.51,-7.23,-7.23,0,*56
1514458842.48,52100,6.25,71402.0,-5.51,-7.23,-7.15,0,*52
1514458843.71,52101,6.25,71408.5,-5.53,-7.15,-7.11,0,*50
1514458844.94,52102,6.25,71416.3,-5.53,-7.15,-7.11,0,*53
1514458846.19,52103,6.25,71414.0,-5.51,-7.05,-6.97,0,*5E
1514458847.42,52104,6.25,71406.3,-5.53,-7.11,-7.15,0,*55
1514458848.65,52105,6.25,71418.8,-5.53,-7.15,-7.11,0,*54
1514458849.93,52106,6.25,71410.0,-5.53,-7.01,-7.01,0,*53
1514458851.15,52107,6.25,71396.0,-5.53,-7.23,-7.15,0,*57
1514458852.36,52108,6.25,71406.5,-5.51,-7.19,-7.11,0,*57
1514458853.57,52109,6.25,71400.3,-5.51,-7.11,-7.11,0,*5E
1514458854.79,52110,6.25,71392.3,-5.51,-6.93,-6.85,0,*51
1514458856.05,52111,6.25,71400.5,-5.53,-7.01,-7.11,0,*54
1514458857.29,52112,6.25,71400.5,-5.51,-7.05,-6.93,0,*5A
1514458858.53,52113,6.25,71404.5,-5.51,-7.05,-7.05,0,*55
1514458859.77,52114,6.25,71406.8,-5.53,-7.11,-7.11,0,*50
1514458861.01,52115,6.25,71382.5,-5.51,-7.05,-7.05,0,*53
1514458862.24,52116,6.25,71390.0,-5.53,-7.11,-7.11,0,*52
1514458863.46,52117,6.25,71388.3,-5.51,-7.11,-7.05,0,*54
1514458864.72,52118,6.25,71384.0,-5.53,-7.11,-7.01,0,*5D
1514458865.99,52119,6.25,71388.8,-5.53,-7.01,-7.01,0,*5D
1514458867.21,52120,6.25,71388.3,-5.51,-6.93,-6.85,0,*52
1514458868.44,52121,6.25,71402.3,-5.53,-6.89,-6.85,0,*5A
1514458869.65,52122,6.25,71404.3,-5.51,-6.81,-6.81,0,*57
1514458870.9,52123,6.25,71398.8,-5.51,-6.93,-6.93,0,*56
1514458872.09,52124,6.25,71396.8,-5.51,-6.85,-6.85,0,*51
1514458873.34,52125,6.25,71388.8,-5.51,-6.93,-6.93,0,*50
1514458874.54,52126,6.25,71400.3,-5.51,-6.85,-6.85,0,*53
1514458875.78,52127,6.25,71392.8,-5.51,-7.05,-7.05,0,*52
1514458877.04,52128,6.25,71404.0,-5.49,-7.05,-7.05,0,*54
1514458878.26,52129,6.25,71396.5,-5.49,-6.85,-6.85,0,*55
1514458879.48,52130,6.25,71398.0,-5.49,-6.85,-6.85,0,*5D
1514458880.76,52131,6.25,71392.5,-5.49,-6.93,-6.93,0,*5C
1514458882.01,52132,6.25,71396.0,-5.49,-6.93,-6.85,0,*58
1514458883.26,52133,6.25,71398.0,-5.51,-6.97,-6.97,0,*57
1514458884.53,52134,6.25,71388.5,-5.49,-7.05,-6.97,0,*53
1514458885.8,52135,6.25,71384.3,-5.49,-6.97,-6.93,0,*5C
1514458887.03,52136,6.25,71382.8,-5.51,-6.97,-6.85,0,*51
1514458888.23,52137,6.25,71382.3,-5.51,-6.85,-6.81,0,*57
1514458889.45,52138,6.25,71378.3,-5.49,-6.85,-6.85,0,*55
1514458890.67,52139,6.25,71380.5,-5.49,-6.85,-6.85,0,*54
1514458891.89,52140,6.25,71386.5,-5.49,-6.85,-6.85,0,*5A
1514458893.11,52141,6.25,71388.8,-5.49,-6.85,-6.85,0,*5B
1514458894.34,52142,6.25,71388.0,-5.45,-6.89,-6.81,0,*5C
1514458895.6,52143,6.25,71384.0,-5.45,-6.93,-6.81,0,*56
1514458896.83,52144,6.25,71388.3,-5.45,-6.81,-6.69,0,*54
1514458898.06,52145,6.25,71394.3,-5.49,-6.81,-6.81,0,*5F
1514458899.28,52146,6.25,71388.0,-5.45,-6.77,-6.69,0,*5F
1514458900.54,52147,6.25,71390.5,-5.49,-6.93,-6.81,0,*5E
1514458901.77,52148,6.25,71390.8,-5.45,-6.81,-6.81,0,*5E
1514458903.05,52149,6.25,71392.8,-5.45,-6.93,-6.93,0,*5F
1514458904.27,52150,6.25,71398.5,-5.45,-6.81,-6.69,0,*51
1514458905.5,52151,6.25,71396.8,-5.45,-6.69,-6.55,0,*59
1514458906.72,52152,6.25,71392.0,-5.45,-6.59,-6.55,0,*59
1514458907.95,52153,6.25,71396.8,-5.45,-6.77,-6.69,0,*5B
1514458909.17,52154,6.25,71400.8,-5.45,-6.81,-6.77,0,*5A
1514458910.39,52155,6.25,71398.8,-5.45,-6.69,-6.69,0,*52
1514458911.62,52156,6.25,71402.0,-5.45,-6.77,-6.69,0,*5E
1514458912.84,52157,6.25,71406.5,-5.49,-6.81,-6.73,0,*51
1514458914.07,52158,6.25,71396.5,-5.45,-6.77,-6.77,0,*5F
1514458915.28,52159,6.25,71400.0,-5.45,-6.69,-6.69,0,*5E
1514458916.51,52160,6.25,71398.8,-5.45,-6.77,-6.69,0,*5B
1514458917.7,52161,6.25,71396.3,-5.43,-6.85,-6.73,0,*5A
1514458918.93,52162,6.25,71398.3,-5.45,-6.81,-6.69,0,*50
1514458920.15,52163,6.25,71392.8,-5.45,-6.89,-6.77,0,*56
1514458921.43,52164,6.25,71390.8,-5.45,-7.01,-6.93,0,*5A
1514458922.7,52165,6.25,71402.0,-5.45,-7.01,-7.01,0,*51
1514458923.98,52166,6.25,71404.5,-5.45,-7.01,-6.93,0,*58
1514458925.25,52167,6.25,71396.0,-5.45,-7.01,-6.93,0,*59
1514458926.52,52168,6.25,71396.8,-5.45,-7.05,-6.93,0,*52
1514458927.8,52169,6.25,71388.8,-5.45,-7.05,-7.01,0,*59
1514458929.07,52170,6.25,71398.0,-5.45,-7.01,-6.93,0,*5F
1514458930.33,52171,6.25,71394.3,-5.45,-6.93,-6.89,0,*5F
1514458931.6,52172,6.25,71384.3,-5.45,-7.01,-6.93,0,*5D
1514458932.85,52173,6.25,71382.3,-5.45,-7.01,-6.89,0,*57
1514458934.08,52174,6.25,71394.8,-5.45,-6.81,-6.77,0,*58
1514458935.28,52175,6.25,71396.8,-5.43,-6.77,-6.73,0,*52
1514458936.53,52176,6.25,71396.8,-5.45,-6.93,-6.69,0,*56
1514458937.72,52177,6.25,71404.5,-5.43,-6.85,-6.77,0,*59
1514458939.0,52178,6.25,71398.8,-5.45,-6.93,-6.93,0,*5D
1514458940.28,52179,6.25,71404.0,-5.45,-7.01,-7.01,0,*5C
1514458941.55,52180,6.25,71392.5,-5.45,-7.01,-7.01,0,*5A
1514458942.78,52181,6.25,71368.0,-5.45,-6.89,-6.81,0,*53
1514458944.0,52182,6.25,71406.5,-5.43,-6.85,-6.63,0,*56
1514458945.2,52183,6.25,71410.3,-5.43,-6.85,-6.73,0,*56
1514458946.42,52184,6.25,71406.5,-5.45,-6.89,-6.77,0,*5F
1514458947.63,52185,6.25,71404.3,-5.43,-6.81,-6.77,0,*50
1514458948.82,52186,6.25,71406.8,-5.43,-6.89,-6.85,0,*56
1514458950.05,52187,6.25,71404.5,-5.45,-6.89,-6.89,0,*5D
1514458951.3,52188,6.25,71406.0,-5.45,-6.93,-6.89,0,*59
1514458952.5,52189,6.25,71408.3,-5.43,-6.85,-6.73,0,*5C
1514458953.73,52190,6.25,71412.3,-5.45,-6.81,-6.81,0,*5B
1514458954.96,52191,6.25,71402.0,-5.45,-6.81,-6.77,0,*53
1514458956.18,52192,6.25,71406.8,-5.45,-6.89,-6.77,0,*58
1514458957.38,52193,6.25,71408.8,-5.43,-6.85,-6.85,0,*5E
1514458958.58,52194,6.25,71414.8,-5.43,-6.85,-6.77,0,*54
1514458959.78,52195,6.25,71400.0,-5.43,-6.89,-6.77,0,*59
1514458960.97,52196,6.25,71400.5,-5.43,-6.85,-6.77,0,*56
1514458962.17,52197,6.25,71406.3,-5.43,-6.85,-6.77,0,*57
1514458963.37,52198,6.25,71402.3,-5.43,-6.77,-6.89,0,*54
1514458964.57,52199,6.25,71410.5,-5.43,-6.85,-6.77,0,*59
1514458965.76,52200,6.25,71400.0,-5.43,-6.85,-6.85,0,*57
1514458966.99,52201,6.25,71396.8,-5.45,-6.89,-6.81,0,*58
1514458968.19,52202,6.25,71386.3,-5.43,-6.89,-6.77,0,*54
1514458969.4,52203,6.25,71374.5,-5.43,-6.81,-6.81,0,*54
1514458970.6,52204,6.25,71388.5,-5.43,-6.89,-6.77,0,*52
1514458971.85,52205,6.25,71402.3,-5.45,-6.93,-6.89,0,*5F
1514458973.07,52206,6.25,71400.5,-5.45,-6.89,-6.89,0,*57
1514458974.3,52207,6.25,71406.8,-5.45,-6.89,-6.89,0,*56
1514458975.53,52208,6.25,71412.5,-5.45,-6.77,-6.81,0,*50
1514458976.76,52209,6.25,71408.5,-5.45,-6.89,-6.81,0,*50
1514458977.99,52210,6.25,71416.0,-5.43,-6.97,-6.89,0,*59
1514458979.25,52211,6.25,71420.5,-5.45,-6.93,-6.81,0,*52
1514458980.45,52212,6.25,71416.8,-5.43,-6.89,-6.85,0,*58
1514458981.64,52213,6.25,71430.5,-5.43,-6.89,-6.77,0,*54
1514458982.89,52214,6.25,71430.0,-5.43,-6.63,-6.63,0,*52
1514458984.09,52215,6.25,71418.3,-5.43,-6.85,-6.85,0,*53
1514458985.28,52216,6.25,71424.0,-5.43,-6.77,-6.77,0,*50
1514458986.48,52217,6.25,71424.0,-5.43,-6.73,-6.73,0,*51
1514458987.7,52218,6.25,71430.0,-5.43,-6.63,-6.73,0,*5F
1514458988.92,52219,6.25,71424.0,-5.45,-6.69,-6.77,0,*56
1514458990.14,52220,6.25,71430.0,-5.43,-6.73,-6.63,0,*54
1514458991.36,52221,6.25,71420.0,-5.43,-6.63,-6.51,0,*55
1514458992.56,52222,6.25,71412.0,-5.43,-6.73,-6.77,0,*53
1514458993.76,52223,6.25,71406.3,-5.43,-6.77,-6.77,0,*56
1514458995.01,52224,6.25,71414.0,-5.41,-6.73,-6.63,0,*52
1514458996.23,52225,6.25,71420.3,-5.41,-6.77,-6.73,0,*56
1514458997.43,52226,6.25,71416.5,-5.43,-6.73,-6.73,0,*53
1514458998.63,52227,6.25,71414.0,-5.43,-6.77,-6.73,0,*56
1514458999.88,52228,6.25,71418.8,-5.41,-6.73,-6.63,0,*5E
1514459001.13,52229,6.25,71420.5,-5.41,-6.73,-6.63,0,*5F
1514459002.35,52230,6.25,71422.0,-5.41,-6.85,-6.77,0,*5B
1514459003.58,52231,6.25,71418.8,-5.41,-6.77,-6.85,0,*5A
1514459004.83,52232,6.25,71412.5,-5.41,-6.97,-6.85,0,*57
1514459006.06,52233,6.25,71414.0,-5.41,-6.85,-6.77,0,*58
1514459007.28,52234,6.25,71414.8,-5.41,-6.73,-6.73,0,*52
1514459008.48,52235,6.25,71418.0,-5.43,-6.73,-6.77,0,*55
1514459009.69,52236,6.25,71418.0,-5.43,-6.63,-6.73,0,*53
1514459010.89,52237,6.25,71424.3,-5.43,-6.77,-6.73,0,*57
1514459012.12,52238,6.25,71420.3,-5.41,-6.73,-6.73,0,*5E
1514459013.34,52239,6.25,71422.0,-5.41,-6.77,-6.77,0,*5F
1514459014.57,52240,6.25,71420.0,-5.41,-6.73,-6.73,0,*51
1514459015.78,52241,6.25,71428.0,-5.39,-6.69,-6.63,0,*55
1514459016.98,52242,6.25,71422.3,-5.43,-6.85,-6.89,0,*5D
1514459018.18,52243,6.25,71418.8,-5.43,-6.89,-6.85,0,*5C
1514459019.4,52244,6.25,71434.0,-5.43,-6.97,-6.85,0,*54
1514459020.63,52245,6.25,71438.0,-5.43,-6.97,-6.85,0,*55
1514459021.85,52246,6.25,71420.8,-5.41,-6.85,-6.85,0,*57
1514459023.07,52247,6.25,71404.3,-5.41,-6.77,-6.73,0,*52
1514459024.33,52248,6.25,71420.5,-5.41,-6.77,-6.63,0,*5C
1514459025.55,52249,6.25,71414.3,-5.41,-6.85,-6.77,0,*55
1514459026.78,52250,6.25,71418.3,-5.41,-6.73,-6.59,0,*58
1514459028.05,52251,6.25,71414.5,-5.41,-6.63,-6.63,0,*51
1514459029.27,52252,6.25,71402.8,-5.41,-6.73,-6.73,0,*52
1514459030.49,52253,6.25,71410.8,-5.41,-6.73,-6.73,0,*53
1514459031.74,52254,6.25,71426.3,-5.41,-6.73,-6.63,0,*55
1514459032.97,52255,6.25,71412.3,-5.41,-6.85,-6.85,0,*55
1514459034.19,52256,6.25,71404.5,-5.41,-6.85,-6.73,0,*5F
1514459035.42,52257,6.25,71394.8,-5.41,-6.85,-6.89,0,*5B
1514459036.64,52258,6.25,71392.0,-5.41,-6.77,-6.77,0,*58
1514459037.87,52259,6.25,71398.3,-5.41,-6.85,-6.89,0,*55
1514459039.12,52260,6.25,71394.8,-5.41,-6.97,-6.89,0,*5C
1514459040.34,52261,6.25,71386.0,-5.41,-6.89,-6.85,0,*5E
1514459041.57,52262,6.25,71372.3,-5.41,-6.85,-6.77,0,*5C
1514459042.79,52263,6.25,71370.5,-5.41,-6.85,-6.85,0,*50
1514459044.01,52264,6.25,71376.8,-5.41,-6.89,-6.85,0,*5B
1514459045.24,52265,6.25,71376.5,-5.41,-6.89,-6.85,0,*5A
1514459046.46,52266,6.25,71380.3,-5.41,-6.89,-6.85,0,*59
1514459047.69,52267,6.25,71400.8,-5.39,-6.93,-6.81,0,*58
1514459048.94,52268,6.25,71388.8,-5.43,-6.97,-6.97,0,*59
1514459050.19,52269,6.25,71388.3,-5.43,-6.97,-6.97,0,*58
1514459051.39,52270,6.25,71388.5,-5.39,-6.89,-6.89,0,*5D
1514459052.64,52271,6.25,71394.0,-5.41,-6.97,-6.89,0,*5C
1514459053.86,52272,6.25,71386.8,-5.41,-6.77,-6.85,0,*5D
1514459055.09,52273,6.25,71386.5,-5.41,-6.89,-6.85,0,*5D
1514459056.31,52274,6.25,71386.5,-5.41,-6.85,-6.85,0,*56
1514459057.51,52275,6.25,71384.5,-5.43,-6.85,-6.85,0,*55
1514459058.7,52276,6.25,71386.8,-5.43,-6.85,-6.85,0,*56
1514459059.91,52277,6.25,71382.3,-5.43,-6.77,-6.77,0,*57
1514459061.1,52278,6.25,71382.0,-5.43,-6.89,-6.85,0,*54
1514459062.3,52279,6.25,71392.0,-5.43,-6.89,-6.85,0,*55
1514459063.52,52280,6.25,71392.8,-5.41,-6.85,-6.85,0,*5D
1514459064.75,52281,6.25,71396.3,-5.41,-6.89,-6.77,0,*5D
1514459066.0,52282,6.25,71400.5,-5.41,-6.97,-6.85,0,*5C
1514459067.25,52283,6.25,71402.3,-5.41,-6.85,-6.63,0,*56
1514459068.47,52284,6.25,71388.5,-5.41,-6.77,-6.85,0,*54
1514459069.7,52285,6.25,71388.3,-5.41,-6.77,-6.77,0,*58
1514459070.98,52286,6.25,71388.0,-5.41,-6.97,-6.97,0,*5B
1514459072.23,52287,6.25,71384.3,-5.41,-6.97,-6.89,0,*55
1514459073.46,52288,6.25,71390.0,-5.41,-6.89,-6.85,0,*59
1514459074.68,52289,6.25,71388.3,-5.41,-6.89,-6.77,0,*55
1514459075.9,52290,6.25,71394.5,-5.41,-6.89,-6.85,0,*50
1514459077.13,52291,6.25,71400.0,-5.41,-6.89,-6.85,0,*51
1514459078.35,52292,6.25,71400.8,-5.41,-6.85,-6.85,0,*5E
1514459079.57,52293,6.25,71398.0,-5.41,-6.89,-6.85,0,*53
1514459080.8,52294,6.25,71396.5,-5.41,-6.77,-6.77,0,*58
1514459082.03,52295,6.25,71390.5,-5.41,-6.85,-6.77,0,*54
1514459083.25,52296,6.25,71386.0,-5.41,-6.85,-6.85,0,*5A
1514459084.5,52297,6.25,71378.5,-5.41,-6.97,-6.85,0,*58
1514459085.71,52298,6.25,71378.8,-5.39,-6.81,-6.81,0,*5B
1514459086.98,52299,6.25,71382.3,-5.41,-6.97,-6.97,0,*55
1514459088.21,52300,6.25,71386.8,-5.43,-7.01,-7.11,0,*57
1514459089.46,52301,6.25,71380.8,-5.41,-7.11,-7.01,0,*54
1514459090.69,52302,6.25,71382.5,-5.41,-7.19,-7.15,0,*5A
1514459091.95,52303,6.25,71376.8,-5.41,-7.19,-7.27,0,*5A
1514459093.18,52304,6.25,71376.5,-5.41,-7.19,-7.15,0,*5C
1514459094.4,52305,6.25,71376.5,-5.43,-7.31,-7.19,0,*59
1514459095.6,52306,6.25,71378.0,-5.43,-7.15,-7.15,0,*50
1514459096.83,52307,6.25,71372.5,-5.43,-7.15,-7.27,0,*50
1514459098.06,52308,6.25,71370.3,-5.41,-7.11,-7.11,0,*5C
1514459099.26,52309,6.25,71370.0,-5.43,-7.19,-7.19,0,*5F
1514459100.52,52310,6.25,71378.5,-5.45,-7.05,-7.15,0,*50
1514459101.76,52311,6.25,71378.3,-5.43,-7.01,-7.01,0,*56
1514459103.04,52312,6.25,71386.3,-5.45,-7.01,-7.01,0,*53
1514459104.27,52313,6.25,71372.5,-5.45,-7.19,-7.19,0,*52
1514459105.54,52314,6.25,71382.0,-5.45,-7.05,-7.01,0,*51
1514459106.81,52315,6.25,71386.3,-5.45,-7.05,-7.01,0,*50
1514459108.04,52316,6.25,71396.3,-5.45,-7.15,-7.15,0,*57
1514459109.29,52317,6.25,71402.3,-5.45,-6.89,-6.93,0,*5D
1514459110.49,52318,6.25,71394.5,-5.43,-6.89,-6.89,0,*5F
1514459111.77,52319,6.25,71384.5,-5.45,-6.93,-7.01,0,*52
1514459112.96,52320,6.25,71382.3,-5.43,-6.89,-6.89,0,*54
1514459114.24,52321,6.25,71380.0,-5.45,-7.05,-7.01,0,*57
1514459115.48,52322,6.25,71386.5,-5.43,-7.01,-6.97,0,*58
1514459116.71,52323,6.25,71384.3,-5.45,-7.19,-7.19,0,*51
1514459117.94,52324,6.25,71398.3,-5.45,-7.15,-7.23,0,*53
1514459119.17,52325,6.25,71414.8,-5.45,-7.15,-7.15,0,*57
1514459120.42,52326,6.25,71422.8,-5.45,-7.05,-7.15,0,*55
1514459121.67,52327,6.25,71406.5,-5.45,-7.15,-7.05,0,*54
1514459122.92,52328,6.25,71412.3,-5.45,-7.05,-6.89,0,*5F
1514459124.17,52329,6.25,71408.8,-5.45,-7.05,-6.81,0,*56
1514459125.39,52330,6.25,71418.8,-5.43,-7.01,-6.89,0,*54
1514459126.65,52331,6.25,71416.0,-5.45,-7.19,-7.01,0,*5B
1514459127.87,52332,6.25,71416.8,-5.43,-7.15,-6.97,0,*5C
1514459129.07,52333,6.25,71410.5,-5.43,-7.11,-6.89,0,*56
1514459130.32,52334,6.25,71408.5,-5.45,-7.19,-7.05,0,*5A
1514459131.59,52335,6.25,71416.8,-5.45,-7.05,-7.05,0,*56
1514459132.86,52336,6.25,71412.8,-5.45,-7.05,-7.05,0,*55
1514459134.13,52337,6.25,71414.0,-5.45,-7.05,-7.01,0,*50
1514459135.4,52338,6.25,71416.8,-5.45,-7.01,-7.01,0,*5B
1514459136.68,52339,6.25,71408.0,-5.45,-7.05,-7.01,0,*5E
1514459137.93,52340,6.25,71412.3,-5.45,-7.15,-6.93,0,*5B
1514459139.19,52341,6.25,71412.8,-5.45,-7.05,-7.05,0,*55
1514459140.44,52342,6.25,71402.5,-5.45,-7.15,-7.05,0,*57
1514459141.67,52343,6.25,71404.5,-5.45,-7.15,-7.15,0,*57
1514459142.9,52344,6.25,71410.5,-5.45,-7.15,-7.15,0,*50
1514459144.14,52345,6.25,71410.0,-5.45,-7.15,-7.05,0,*50
1514459145.41,52346,6.25,71406.5,-5.45,-7.05,-7.05,0,*52
1514459146.65,52347,6.25,71402.3,-5.45,-7.15,-7.05,0,*52
1514459147.88,52348,6.25,71406.5,-5.45,-7.23,-7.19,0,*55
1514459149.11,52349,6.25,71400.3,-5.45,-7.23,-7.19,0,*54
1514459150.36,52350,6.25,71412.5,-5.45,-7.31,-7.19,0,*5F
1514459151.61,52351,6.25,71408.5,-5.45,-7.31,-7.19,0,*5E
1514459152.84,52352,6.25,71400.0,-5.45,-7.23,-7.23,0,*57
1514459154.11,52353,6.25,71400.5,-5.49,-7.27,-7.27,0,*5A
1514459155.38,52354,6.25,71410.3,-5.45,-7.35,-7.35,0,*51
1514459156.66,52355,6.25,71400.3,-5.45,-7.31,-7.31,0,*50
1514459157.93,52356,6.25,71380.5,-5.45,-7.43,-7.35,0,*52
1514459159.21,52357,6.25,71384.3,-5.45,-7.43,-7.35,0,*53
1514459160.43,52358,6.25,71394.8,-5.49,-7.49,-7.49,0,*51
1514459161.7,52359,6.25,71386.8,-5.49,-7.35,-7.35,0,*50
1514459162.97,52360,6.25,71390.5,-5.45,-7.35,-7.35,0,*56
1514459164.2,52361,6.25,71382.3,-5.49,-7.23,-7.11,0,*5A
1514459165.45,52362,6.25,71386.8,-5.49,-7.27,-7.19,0,*55
1514459166.68,52363,6.25,71386.3,-5.45,-7.15,-7.15,0,*55
1514459167.9,52364,6.25,71404.8,-5.49,-7.23,-7.19,0,*57
1514459169.13,52365,6.25,71398.8,-5.49,-7.23,-7.23,0,*5F
1514459170.36,52366,6.25,71390.8,-5.49,-7.19,-7.23,0,*55
1514459171.6,52367,6.25,71394.0,-5.49,-7.27,-7.19,0,*50
1514459172.87,52368,6.25,71402.8,-5.49,-7.27,-7.27,0,*52
1514459174.1,52369,6.25,71388.8,-5.49,-7.23,-7.23,0,*53
1514459175.37,52370,6.25,71394.8,-5.49,-7.35,-7.27,0,*58
1514459176.62,52371,6.25,71404.3,-5.49,-7.27,-7.23,0,*5E
1514459177.85,52372,6.25,71402.3,-5.49,-7.23,-7.19,0,*50
1514459179.07,52373,6.25,71398.5,-5.51,-7.27,-7.23,0,*55
1514459180.28,52374,6.25,71398.3,-5.51,-7.11,-7.11,0,*56
1514459181.48,52375,6.25,71402.8,-5.51,-7.23,-7.11,0,*56
1514459182.69,52376,6.25,71396.5,-5.51,-7.11,-7.11,0,*54
1514459183.92,52377,6.25,71396.5,-5.51,-7.11,-6.97,0,*5A
1514459185.11,52378,6.25,71398.3,-5.51,-6.85,-6.85,0,*5A
1514459186.38,52379,6.25,71408.5,-5.49,-7.05,-6.97,0,*58
1514459187.65,52380,6.25,71408.8,-5.49,-7.05,-6.93,0,*5A
1514459188.93,52381,6.25,71410.8,-5.49,-6.97,-6.97,0,*55
1514459190.2,52382,6.25,71400.5,-5.49,-6.97,-6.97,0,*56
1514459191.47,52383,6.25,71384.0,-5.49,-7.05,-6.93,0,*59
1514459192.75,52384,6.25,71390.3,-5.45,-7.01,-7.01,0,*5C
1514459193.99,52385,6.25,71388.5,-5.45,-7.15,-7.05,0,*5C
1514459195.24,52386,6.25,71388.3,-5.49,-7.27,-7.23,0,*56
1514459196.47,52387,6.25,71384.8,-5.45,-7.23,-7.23,0,*5F
1514459197.69,52388,6.25,71404.0,-5.49,-7.23,-7.19,0,*55
1514459198.94,52389,6.25,71404.8,-5.49,-7.27,-7.23,0,*59
1514459200.19,52390,6.25,71396.8,-5.49,-7.35,-7.23,0,*52
1514459201.44,52391,6.25,71394.0,-5.49,-7.27,-7.23,0,*50
1514459202.71,52392,6.25,71394.3,-5.49,-7.39,-7.27,0,*58
1514459203.95,52393,6.25,71394.3,-5.49,-7.39,-7.23,0,*5D
1514459205.22,52394,6.25,71394.0,-5.49,-7.39,-7.27,0,*5E
1514459206.45,52395,6.25,71386.3,-5.45,-7.19,-7.15,0,*50
1514459207.7,52396,6.25,71390.8,-5.49,-7.27,-7.23,0,*57
1514459208.94,52397,6.25,71380.0,-5.49,-7.39,-7.23,0,*59
1514459210.19,52398,6.25,71396.3,-5.49,-7.39,-7.23,0,*56
1514459211.43,52399,6.25,71388.0,-5.49,-7.39,-7.23,0,*57
1514459212.65,52400,6.25,71386.5,-5.49,-7.49,-7.19,0,*5E
1514459213.88,52401,6.25,71396.5,-5.49,-7.53,-7.23,0,*5D
1514459215.1,52402,6.25,71382.8,-5.49,-7.53,-7.23,0,*5E
1514459216.37,52403,6.25,71390.0,-5.45,-7.31,-7.05,0,*53
1514459217.6,52404,6.25,71388.5,-5.49,-7.23,-7.11,0,*5E
1514459218.85,52405,6.25,71392.8,-5.49,-7.19,-6.97,0,*59
1514459220.1,52406,6.25,71392.5,-5.49,-7.11,-6.97,0,*52
1514459221.35,52407,6.25,71394.8,-5.49,-7.11,-6.97,0,*53
1514459222.62,52408,6.25,71392.5,-5.49,-7.05,-6.97,0,*59
1514459223.89,52409,6.25,71388.5,-5.49,-6.97,-6.97,0,*52
1514459225.14,52410,6.25,71382.0,-5.49,-6.93,-6.85,0,*5D
1514459226.36,52411,6.25,71390.0,-5.49,-6.85,-6.85,0,*5B
1514459227.59,52412,6.25,71384.0,-5.45,-6.89,-6.81,0,*5C
1514459228.87,52413,6.25,71378.3,-5.49,-6.97,-6.93,0,*5D
1514459230.12,52414,6.25,71378.0,-5.45,-6.93,-6.89,0,*59
1514459231.37,52415,6.25,71378.5,-5.45,-6.69,-6.63,0,*59
1514459232.59,52416,6.25,71378.0,-5.49,-6.73,-6.73,0,*5C
1514459233.85,52417,6.25,71384.0,-5.45,-6.93,-6.81,0,*52
1514459235.07,52418,6.25,71386.5,-5.49,-6.85,-6.85,0,*52
1514459236.29,52419,6.25,71384.0,-5.49,-6.85,-6.81,0,*57
1514459237.52,52420,6.25,71380.8,-5.45,-6.81,-6.69,0,*53
1514459238.74,52421,6.25,71380.3,-5.49,-6.85,-6.73,0,*51
1514459239.96,52422,6.25,71382.0,-5.45,-6.89,-6.89,0,*57
1514459241.2,52423,6.25,71376.3,-5.45,-6.81,-6.81,0,*56
1514459242.45,52424,6.25,71378.0,-5.45,-6.93,-6.89,0,*5A
1514459243.68,52425,6.25,71376.0,-5.45,-6.81,-6.77,0,*59
1514459244.91,52426,6.25,71386.8,-5.45,-6.81,-6.81,0,*53
1514459246.15,52427,6.25,71378.3,-5.45,-6.81,-6.81,0,*52
1514459247.38,52428,6.25,71380.3,-5.45,-6.89,-6.81,0,*55
1514459248.6,52429,6.25,71386.5,-5.45,-6.89,-6.89,0,*5C
1514459249.83,52430,6.25,71384.5,-5.45,-6.89,-6.89,0,*54
1514459251.1,52431,6.25,71356.8,-5.45,-7.01,-6.93,0,*5F
1514459252.33,52432,6.25,71376.3,-5.45,-6.89,-6.77,0,*57
1514459253.58,52433,6.25,71376.8,-5.45,-7.01,-6.89,0,*56
1514459254.84,52434,6.25,71374.0,-5.45,-6.93,-6.81,0,*53
1514459256.11,52435,6.25,71366.8,-5.45,-7.01,-7.01,0,*51
1514459257.39,52436,6.25,71370.8,-5.45,-6.93,-6.93,0,*52
1514459258.64,52437,6.25,71370.5,-5.45,-6.93,-6.89,0,*58
1514459259.87,52438,6.25,71366.8,-5.45,-6.89,-6.81,0,*54
1514459261.1,52439,6.25,71372.0,-5.45,-6.77,-6.77,0,*5D
1514459262.32,52440,6.25,71382.8,-5.45,-6.77,-6.69,0,*5C
1514459263.55,52441,6.25,71388.0,-5.45,-6.81,-6.77,0,*5B
1514459264.78,52442,6.25,71390.5,-5.45,-6.89,-6.89,0,*51
1514459266.0,52443,6.25,71388.3,-5.45,-6.89,-6.89,0,*50
1514459267.26,52444,6.25,71394.8,-5.45,-6.93,-6.81,0,*54
1514459268.49,52445,6.25,71392.5,-5.45,-6.89,-6.81,0,*5E
1514459269.72,52446,6.25,71392.5,-5.45,-6.81,-6.89,0,*5D
1514459270.97,52447,6.25,71388.0,-5.45,-7.01,-6.89,0,*55
1514459272.24,52448,6.25,71380.5,-5.45,-7.01,-7.01,0,*5B
1514459273.52,52449,6.25,71378.3,-5.45,-7.01,-7.01,0,*5A
1514459274.74,52450,6.25,71376.5,-5.45,-6.89,-6.89,0,*52
1514459275.98,52451,6.25,71382.8,-5.45,-6.81,-6.81,0,*53
1514459277.23,52452,6.25,71384.0,-5.45,-6.93,-6.89,0,*5B
1514459278.45,52453,6.25,71392.0,-5.45,-6.89,-6.89,0,*51
1514459279.73,52454,6.25,71398.0,-5.45,-7.01,-6.93,0,*5C
1514459281.01,52455,6.25,71402.0,-5.45,-6.93,-6.93,0,*57
1514459282.28,52456,6.25,71400.3,-5.45,-7.01,-7.01,0,*54
1514459283.55,52457,6.25,71394.3,-5.45,-7.01,-7.01,0,*55
1514459284.83,52458,6.25,71396.0,-5.45,-7.01,-7.01,0,*5A
1514459286.06,52459,6.25,71400.8,-5.45,-7.19,-7.15,0,*57
1514459287.29,52460,6.25,71392.0,-5.45,-7.15,-7.15,0,*51
1514459288.53,52461,6.25,71396.0,-5.45,-7.19,-7.05,0,*5D
1514459289.8,52462,6.25,71392.3,-5.45,-7.05,-7.05,0,*53
1514459291.08,52463,6.25,71394.5,-5.45,-7.01,-7.01,0,*52
1514459292.35,52464,6.25,71388.5,-5.45,-6.93,-6.93,0,*55
1514459293.63,52465,6.25,71400.3,-5.45,-7.01,-6.93,0,*5E
1514459294.88,52466,6.25,71402.0,-5.45,-6.93,-6.89,0,*5C
1514459296.11,52467,6.25,71398.3,-5.45,-7.19,-7.15,0,*5A
1514459297.38,52468,6.25,71386.3,-5.45,-7.05,-7.05,0,*59
1514459298.63,52469,6.25,71384.5,-5.45,-6.93,-6.89,0,*53
1514459299.88,52470,6.25,71398.5,-5.45,-7.01,-6.89,0,*51
1514459301.16,52471,6.25,71390.8,-5.45,-6.93,-7.01,0,*5B
1514459302.38,52472,6.25,71384.3,-5.45,-6.89,-6.89,0,*52
1514459303.61,52473,6.25,71388.8,-5.45,-6.81,-6.77,0,*5A
1514459304.84,52474,6.25,71394.3,-5.45,-6.89,-6.77,0,*55
1514459306.07,52475,6.25,71402.0,-5.45,-6.89,-6.81,0,*5D
1514459307.29,52476,6.25,71392.8,-5.45,-6.89,-6.89,0,*56
1514459308.54,52477,6.25,71400.0,-5.45,-7.01,-6.89,0,*56
1514459309.8,52478,6.25,71402.0,-5.45,-7.01,-6.81,0,*51
1514459311.06,52479,6.25,71406.8,-5.45,-6.93,-6.81,0,*5A
1514459312.28,52480,6.25,71406.3,-5.45,-6.89,-6.77,0,*5E
1514459313.53,52481,6.25,71404.8,-5.43,-6.97,-6.97,0,*58
1514459314.8,52482,6.25,71410.3,-5.45,-7.05,-7.05,0,*5D
1514459316.07,52483,6.25,71406.8,-5.45,-7.01,-7.01,0,*5C
1514459317.3,52484,6.25,71410.8,-5.45,-6.89,-6.81,0,*53
1514459318.55,52485,6.25,71416.8,-5.49,-6.93,-6.85,0,*51
1514459319.79,52486,6.25,71412.5,-5.45,-6.81,-6.81,0,*59